sat.trackr.live / text

‹ back to catalog

STARLINK-3610

NORAD 51812 · 2022-017AW

PAYLOAD ACTIVE UNKNOWN

§ Identity

Operator
Country
US
Launch date
2022-02-25
Launch site
AFWTR
Launch vehicle
Mass (kg)
RCS (m²)

Purposes: comms

External: N2YO · Heavens-Above · Gunter

§ Orbital elements

Epoch: 2026-09-20T02:51:39.268800Z

Period
93.85 min
Inclination
53.1625°
Eccentricity
0.0001136
Mean motion
15.34385918 rev/d
Perigee alt
462.0 km
Apogee alt
463.5 km
Semi-major
6,840.9 km
B*
2.4551e-5
RAAN
165.8348°
Arg perigee
89.9313°
Mean anomaly
270.1820°
Rev number
25,357

§ Raw data

STARLINK-36101 51812U 22017AW  26263.11920450  .00000453  00000+0  24551-4 0  99922 51812  53.1625 165.8348 0001136  89.9313 270.1820 15.34385918253579

JSON: /api/v1/satellites/51812 · /tle

For live sub-satellite position, see the globe view (requires WebGL).

§ Visibility from observer

Set your observer location to see the next 7 days of passes ≥ 10°. The values pass through the URL so the page stays shareable.

No JS? Fill the form by hand. The geolocation button needs JavaScript.